| time (UTC) | temp F | wind direction | speed MPH | gust MPH | rain 1hr in | rain 24hr in | rain mn in | humidity % | barometer mb |
| 20260505003642 | 62 | 249 | 2.0 | 4.0 | 0.00 | 0.00 | 0.00 | 44 | 1005.8 |
| 20260505003028 | 62 | 249 | 2.0 | 5.0 | 0.00 | 0.00 | 0.00 | 44 | 1005.7 |
| 20260505002528 | 62 | 254 | 2.0 | 4.0 | 0.00 | 0.00 | 0.00 | 44 | 1005.7 |
| 20260505002027 | 63 | 239 | 2.0 | 5.0 | 0.00 | 0.00 | 0.00 | 43 | 1005.5 |
| 20260505001529 | 63 | 216 | 2.0 | 5.0 | 0.00 | 0.00 | 0.00 | 42 | 1005.4 |
| 20260505001028 | 64 | 216 | 3.0 | 5.0 | 0.00 | 0.00 | 0.00 | 42 | 1005.4 |
| 20260505000527 | 64 | 210 | 2.0 | 6.0 | 0.00 | 0.00 | 0.00 | 41 | 1005.3 |
| 20260505000028 | 65 | 222 | 2.0 | 6.0 | 0.00 | 0.00 | 0.00 | 40 | 1005.4 |
| 20260504235757 | 65 | 218 | 3.0 | 5.0 | 0.00 | 0.00 | 0.00 | 39 | 1005.4 |
| 20260504235028 | 65 | 172 | 2.0 | 8.0 | 0.00 | 0.00 | 0.00 | 39 | 1005.3 |
| 20260504234529 | 66 | 196 | 5.0 | 10.0 | 0.00 | 0.00 | 0.00 | 38 | 1005.3 |
| 20260504234028 | 66 | 186 | 9.0 | 10.0 | 0.00 | 0.00 | 0.00 | 38 | 1005.1 |
| 20260504233528 | 66 | 167 | 4.0 | 10.0 | 0.00 | 0.00 | 0.00 | 38 | 1005.1 |
| 20260504233259 | 66 | 206 | 5.0 | 16.0 | 0.00 | 0.00 | 0.00 | 37 | 1005.0 |
| 20260504232529 | 66 | 154 | 4.0 | 16.0 | 0.00 | 0.00 | 0.00 | 37 | 1005.0 |
| 20260504232027 | 66 | 218 | 8.0 | 16.0 | 0.00 | 0.00 | 0.00 | 37 | 1004.9 |
| 20260504231644 | 67 | 212 | 7.0 | 10.0 | 0.00 | 0.00 | 0.00 | 37 | 1004.9 |
| 20260504231027 | 67 | 232 | 4.0 | 9.0 | 0.00 | 0.00 | 0.00 | 37 | 1004.8 |
| 20260504230528 | 67 | 209 | 4.0 | 12.0 | 0.00 | 0.00 | 0.00 | 37 | 1004.7 |
| 20260504230029 | 67 | 211 | 8.0 | 10.0 | 0.00 | 0.00 | 0.00 | 36 | 1004.6 |
| 20260504225528 | 67 | 191 | 4.0 | 12.0 | 0.00 | 0.00 | 0.00 | 36 | 1004.5 |
| 20260504225143 | 68 | 199 | 3.0 | 12.0 | 0.00 | 0.00 | 0.00 | 36 | 1004.5 |
| 20260504224528 | 68 | 189 | 7.0 | 14.0 | 0.00 | 0.00 | 0.00 | 35 | 1004.5 |
| 20260504224027 | 68 | 204 | 5.0 | 17.0 | 0.00 | 0.00 | 0.00 | 36 | 1004.4 |
| 20260504223527 | 68 | 210 | 8.0 | 18.0 | 0.00 | 0.00 | 0.00 | 35 | 1004.4 |
| 20260504223030 | 68 | 193 | 9.0 | 18.0 | 0.00 | 0.00 | 0.00 | 36 | 1004.5 |
| 20260504222643 | 68 | 189 | 11.0 | 15.0 | 0.00 | 0.00 | 0.00 | 36 | 1004.4 |
| 20260504222027 | 68 | 229 | 4.0 | 13.0 | 0.00 | 0.00 | 0.00 | 37 | 1004.5 |
| 20260504221758 | 68 | 158 | 7.0 | 14.0 | 0.00 | 0.00 | 0.00 | 36 | 1004.5 |
| 20260504221027 | 68 | 213 | 5.0 | 14.0 | 0.00 | 0.00 | 0.00 | 37 | 1004.5 |
| 20260504220528 | 68 | 218 | 5.0 | 14.0 | 0.00 | 0.00 | 0.00 | 36 | 1004.5 |
| 20260504220029 | 68 | 189 | 12.0 | 14.0 | 0.00 | 0.00 | 0.00 | 35 | 1004.5 |
| 20260504215757 | 68 | 196 | 8.0 | 16.0 | 0.00 | 0.00 | 0.00 | 36 | 1004.6 |
| 20260504215028 | 68 | 207 | 7.0 | 16.0 | 0.00 | 0.00 | 0.00 | 35 | 1004.6 |
| 20260504214643 | 68 | 201 | 5.0 | 16.0 | 0.00 | 0.00 | 0.00 | 36 | 1004.6 |
| 20260504214142 | 69 | 176 | 9.0 | 16.0 | 0.00 | 0.00 | 0.00 | 36 | 1004.6 |
| 20260504213642 | 69 | 206 | 15.0 | 16.0 | 0.00 | 0.00 | 0.00 | 35 | 1004.6 |
| 20260504213028 | 69 | 185 | 9.0 | 11.0 | 0.00 | 0.00 | 0.00 | 36 | 1004.6 |
| 20260504212643 | 69 | 195 | 5.0 | 10.0 | 0.00 | 0.00 | 0.00 | 36 | 1004.6 |
| 20260504212257 | 69 | 175 | 1.0 | 17.0 | 0.00 | 0.00 | 0.00 | 36 | 1004.6 |
| 20260504211644 | 68 | 200 | 7.0 | 17.0 | 0.00 | 0.00 | 0.00 | 37 | 1004.6 |
| 20260504211027 | 68 | 189 | 7.0 | 21.0 | 0.00 | 0.00 | 0.00 | 37 | 1004.8 |
| 20260504210642 | 68 | 224 | 5.0 | 21.0 | 0.00 | 0.00 | 0.00 | 37 | 1004.9 |
| 20260504210143 | 68 | 188 | 7.0 | 18.0 | 0.00 | 0.00 | 0.00 | 36 | 1004.9 |
| 20260504205528 | 68 | 212 | 8.0 | 20.0 | 0.00 | 0.00 | 0.00 | 37 | 1004.9 |
| 20260504205027 | 67 | 193 | 11.0 | 20.0 | 0.00 | 0.00 | 0.00 | 36 | 1004.9 |
| 20260504204529 | 68 | 235 | 17.0 | 18.0 | 0.00 | 0.00 | 0.00 | 36 | 1005.0 |
| 20260504204142 | 68 | 207 | 6.0 | 19.0 | 0.00 | 0.00 | 0.00 | 37 | 1005.0 |
| 20260504203527 | 67 | 222 | 12.0 | 19.0 | 0.00 | 0.00 | 0.00 | 36 | 1005.1 |
| 20260504203144 | 68 | 175 | 12.0 | 19.0 | 0.00 | 0.00 | 0.00 | 36 | 1005.0 |
| 20260504202643 | 67 | 225 | 10.0 | 19.0 | 0.00 | 0.00 | 0.00 | 37 | 1005.2 |
| 20260504202142 | 67 | 214 | 8.0 | 17.0 | 0.00 | 0.00 | 0.00 | 37 | 1005.2 |
| 20260504201645 | 67 | 216 | 14.0 | 22.0 | 0.00 | 0.00 | 0.00 | 37 | 1005.2 |
| 20260504201027 | 66 | 193 | 11.0 | 22.0 | 0.00 | 0.00 | 0.00 | 37 | 1005.2 |
| 20260504200528 | 67 | 206 | 5.0 | 21.0 | 0.00 | 0.00 | 0.00 | 36 | 1005.2 |
| 20260504200028 | 67 | 256 | 12.0 | 26.0 | 0.00 | 0.00 | 0.00 | 36 | 1005.2 |
| 20260504195643 | 67 | 225 | 13.0 | 26.0 | 0.00 | 0.00 | 0.00 | 36 | 1005.3 |
| 20260504195142 | 67 | 216 | 9.0 | 18.0 | 0.00 | 0.00 | 0.00 | 37 | 1005.2 |
| 20260504194643 | 67 | 168 | 2.0 | 16.0 | 0.00 | 0.00 | 0.00 | 36 | 1005.3 |
| 20260504194142 | 68 | 191 | 9.0 | 18.0 | 0.00 | 0.00 | 0.00 | 37 | 1005.3 |
| 20260504193642 | 67 | 217 | 10.0 | 18.0 | 0.00 | 0.00 | 0.00 | 37 | 1005.3 |
| 20260504193029 | 67 | 227 | 7.0 | 19.0 | 0.00 | 0.00 | 0.00 | 37 | 1005.3 |
| 20260504192528 | 66 | 235 | 9.0 | 20.0 | 0.00 | 0.00 | 0.00 | 37 | 1005.4 |
| 20260504192028 | 66 | 210 | 9.0 | 20.0 | 0.00 | 0.00 | 0.00 | 37 | 1005.5 |
| 20260504191529 | 66 | 154 | 8.0 | 21.0 | 0.00 | 0.00 | 0.00 | 38 | 1005.5 |
| 20260504191027 | 66 | 201 | 10.0 | 21.0 | 0.00 | 0.00 | 0.00 | 39 | 1005.6 |
| 20260504190527 | 65 | 218 | 7.0 | 16.0 | 0.00 | 0.00 | 0.00 | 38 | 1005.6 |
| 20260504190144 | 65 | 208 | 11.0 | 16.0 | 0.00 | 0.00 | 0.00 | 38 | 1005.7 |
| 20260504185528 | 66 | 82 | 5.0 | 23.0 | 0.00 | 0.00 | 0.00 | 38 | 1005.7 |
| 20260504185258 | 66 | 239 | 3.0 | 23.0 | 0.00 | 0.00 | 0.00 | 38 | 1005.7 |
| 20260504184529 | 66 | 213 | 7.0 | 22.0 | 0.00 | 0.00 | 0.00 | 37 | 1005.6 |
| 20260504184142 | 66 | 245 | 14.0 | 22.0 | 0.00 | 0.00 | 0.00 | 37 | 1005.7 |
| 20260504183527 | 66 | 231 | 23.0 | 22.0 | 0.00 | 0.00 | 0.00 | 37 | 1005.6 |
| 20260504183144 | 67 | 201 | 16.0 | 24.0 | 0.00 | 0.00 | 0.00 | 37 | 1005.9 |
| 20260504182527 | 67 | 251 | 4.0 | 19.0 | 0.00 | 0.00 | 0.00 | 37 | 1005.6 |
| 20260504182027 | 67 | 176 | 13.0 | 20.0 | 0.00 | 0.00 | 0.00 | 37 | 1005.7 |
| 20260504181529 | 66 | 199 | 7.0 | 18.0 | 0.00 | 0.00 | 0.00 | 40 | 1005.8 |
| 20260504181142 | 65 | 175 | 9.0 | 18.0 | 0.00 | 0.00 | 0.00 | 40 | 1005.8 |
| 20260504180527 | 65 | 236 | 6.0 | 17.0 | 0.00 | 0.00 | 0.00 | 40 | 1005.9 |
| 20260504180143 | 64 | 249 | 7.0 | 25.0 | 0.00 | 0.00 | 0.00 | 39 | 1006.0 |
| 20260504175527 | 64 | 203 | 12.0 | 27.0 | 0.00 | 0.00 | 0.00 | 38 | 1006.0 |
| 20260504175142 | 64 | 202 | 17.0 | 27.0 | 0.00 | 0.00 | 0.00 | 39 | 1006.2 |
| 20260504174529 | 65 | 220 | 7.0 | 21.0 | 0.00 | 0.00 | 0.00 | 38 | 1006.1 |
| 20260504174027 | 64 | 193 | 17.0 | 22.0 | 0.00 | 0.00 | 0.00 | 39 | 1006.1 |
| 20260504173643 | 64 | 336 | 17.0 | 22.0 | 0.00 | 0.00 | 0.00 | 38 | 1006.0 |
| 20260504173143 | 64 | 250 | 5.0 | 20.0 | 0.00 | 0.00 | 0.00 | 41 | 1006.4 |
| 20260504172642 | 64 | 220 | 14.0 | 18.0 | 0.00 | 0.00 | 0.00 | 40 | 1006.5 |
| 20260504172027 | 63 | 232 | 12.0 | 19.0 | 0.00 | 0.00 | 0.00 | 43 | 1006.7 |
| 20260504171528 | 63 | 233 | 13.0 | 15.0 | 0.00 | 0.00 | 0.00 | 42 | 1006.6 |
| 20260504171143 | 62 | 199 | 7.0 | 15.0 | 0.00 | 0.00 | 0.00 | 40 | 1006.7 |
| 20260504170528 | 63 | 213 | 9.0 | 17.0 | 0.00 | 0.00 | 0.00 | 41 | 1006.7 |
| 20260504151027 | 60 | 212 | 13.0 | 22.0 | 0.00 | 0.00 | 0.00 | 42 | 1007.5 |
| 20260504150642 | 60 | 177 | 10.0 | 23.0 | 0.00 | 0.00 | 0.00 | 44 | 1007.5 |
| 20260504141027 | 58 | 245 | 12.0 | 25.0 | 0.00 | 0.00 | 0.00 | 43 | 1007.9 |
| 20260504140527 | 57 | 270 | 16.0 | 28.0 | 0.00 | 0.00 | 0.00 | 45 | 1007.9 |
| 20260504130527 | 55 | 236 | 15.0 | 20.0 | 0.00 | 0.00 | 0.00 | 47 | 1008.4 |
| 20260504110528 | 50 | 227 | 3.0 | 12.0 | 0.00 | 0.00 | 0.00 | 53 | 1008.8 |
| 20260504110144 | 50 | 213 | 4.0 | 12.0 | 0.00 | 0.00 | 0.00 | 53 | 1008.9 |
| 20260504081529 | 47 | 203 | 3.0 | 10.0 | 0.00 | 0.00 | 0.00 | 59 | 1008.5 |
| 20260504081142 | 47 | 243 | 9.0 | 11.0 | 0.00 | 0.00 | 0.00 | 58 | 1008.6 |
| 20260504080527 | 47 | 243 | 5.0 | 8.0 | 0.00 | 0.00 | 0.00 | 59 | 1008.7 |
| 20260504080259 | 47 | 234 | 4.0 | 8.0 | 0.00 | 0.00 | 0.00 | 59 | 1008.6 |
| 20260504050528 | 48 | 232 | 5.0 | 11.0 | 0.00 | 0.00 | 0.00 | 52 | 1009.4 |
| 20260504045643 | 48 | 251 | 10.0 | 10.0 | 0.00 | 0.00 | 0.00 | 53 | 1009.6 |
| 20260504045028 | 48 | 264 | 4.0 | 11.0 | 0.00 | 0.00 | 0.00 | 53 | 1009.6 |
| 20260504044532 | 48 | 231 | 4.0 | 11.0 | 0.00 | 0.00 | 0.00 | 52 | 1009.7 |
| 20260504044028 | 48 | 274 | 8.0 | 11.0 | 0.00 | 0.00 | 0.00 | 52 | 1009.6 |
| 20260504043528 | 47 | 227 | 6.0 | 7.0 | 0.00 | 0.00 | 0.00 | 53 | 1009.6 |
| 20260504043145 | 47 | 241 | 3.0 | 7.0 | 0.00 | 0.00 | 0.00 | 53 | 1009.6 |
| 20260504042644 | 47 | 280 | 4.0 | 7.0 | 0.00 | 0.00 | 0.00 | 53 | 1009.6 |
| 20260504042027 | 47 | 268 | 3.0 | 5.0 | 0.00 | 0.00 | 0.00 | 53 | 1009.5 |
| 20260504041532 | 47 | 226 | 1.0 | 5.0 | 0.00 | 0.00 | 0.00 | 53 | 1009.5 |
| 20260504041259 | 47 | 228 | 3.0 | 4.0 | 0.00 | 0.00 | 0.00 | 52 | 1009.4 |
| 20260504040528 | 47 | 237 | 3.0 | 4.0 | 0.00 | 0.00 | 0.00 | 53 | 1009.4 |
| 20260504040028 | 46 | 304 | 0.0 | 7.0 | 0.00 | 0.00 | 0.00 | 54 | 1009.3 |
| 20260504035643 | 47 | 237 | 2.0 | 7.0 | 0.00 | 0.00 | 0.00 | 53 | 1009.3 |
| 20260504035027 | 47 | 233 | 5.0 | 6.0 | 0.00 | 0.00 | 0.00 | 53 | 1009.2 |
| 20260504034529 | 47 | 228 | 3.0 | 6.0 | 0.00 | 0.00 | 0.00 | 51 | 1009.2 |
| 20260504034027 | 47 | 188 | 2.0 | 7.0 | 0.00 | 0.00 | 0.00 | 51 | 1009.1 |
| 20260504033530 | 47 | 226 | 5.0 | 5.0 | 0.00 | 0.00 | 0.00 | 50 | 1009.2 |
| 20260504033029 | 47 | 251 | 3.0 | 8.0 | 0.00 | 0.00 | 0.00 | 50 | 1009.1 |
| 20260504032528 | 47 | 233 | 7.0 | 9.0 | 0.00 | 0.00 | 0.00 | 50 | 1009.2 |
| 20260504032027 | 47 | 278 | 7.0 | 10.0 | 0.00 | 0.00 | 0.00 | 50 | 1009.2 |
| 20260504031529 | 48 | 274 | 3.0 | 10.0 | 0.00 | 0.00 | 0.00 | 50 | 1009.1 |
| 20260504031027 | 48 | 256 | 3.0 | 11.0 | 0.00 | 0.00 | 0.00 | 49 | 1009.0 |
| 20260504030527 | 48 | 272 | 4.0 | 15.0 | 0.00 | 0.00 | 0.00 | 49 | 1009.0 |
| 20260504030029 | 48 | 305 | 7.0 | 15.0 | 0.00 | 0.00 | 0.00 | 48 | 1008.9 |
| 20260504025528 | 48 | 273 | 9.0 | 14.0 | 0.00 | 0.00 | 0.00 | 48 | 1008.9 |
| 20260504025027 | 48 | 285 | 7.0 | 15.0 | 0.00 | 0.00 | 0.00 | 47 | 1008.9 |
| 20260504024644 | 48 | 303 | 5.0 | 15.0 | 0.00 | 0.00 | 0.00 | 48 | 1009.0 |
| 20260504024142 | 48 | 252 | 5.0 | 13.0 | 0.00 | 0.00 | 0.00 | 47 | 1008.9 |
| 20260504023527 | 48 | 284 | 11.0 | 13.0 | 0.00 | 0.00 | 0.00 | 47 | 1009.0 |
| 20260504023144 | 48 | 281 | 12.0 | 13.0 | 0.00 | 0.00 | 0.00 | 47 | 1009.0 |
| 20260504022642 | 48 | 283 | 6.0 | 12.0 | 0.00 | 0.00 | 0.00 | 46 | 1009.0 |
| 20260504022142 | 48 | 293 | 10.0 | 15.0 | 0.00 | 0.00 | 0.00 | 46 | 1009.1 |
| 20260504021529 | 49 | 289 | 5.0 | 15.0 | 0.00 | 0.00 | 0.00 | 45 | 1009.1 |
| 20260504021027 | 49 | 276 | 6.0 | 16.0 | 0.00 | 0.00 | 0.00 | 45 | 1009.1 |
| 20260504020528 | 49 | 255 | 12.0 | 16.0 | 0.00 | 0.00 | 0.00 | 45 | 1009.2 |
| 20260504020143 | 49 | 347 | 12.0 | 13.0 | 0.00 | 0.00 | 0.00 | 45 | 1009.2 |
| 20260504015528 | 49 | 301 | 7.0 | 18.0 | 0.00 | 0.00 | 0.00 | 44 | 1009.2 |
| 20260504015027 | 49 | 289 | 8.0 | 18.0 | 0.00 | 0.00 | 0.00 | 44 | 1009.2 |
| 20260504014644 | 49 | 264 | 7.0 | 17.0 | 0.00 | 0.00 | 0.00 | 44 | 1009.0 |
| 20260504014030 | 49 | 306 | 13.0 | 17.0 | 0.00 | 0.00 | 0.00 | 44 | 1009.0 |
| 20260504013527 | 49 | 258 | 8.0 | 12.0 | 0.00 | 0.00 | 0.00 | 44 | 1008.9 |
| 20260504013028 | 49 | 260 | 10.0 | 19.0 | 0.00 | 0.00 | 0.00 | 43 | 1008.9 |
| 20260504012527 | 49 | 248 | 8.0 | 19.0 | 0.00 | 0.00 | 0.00 | 43 | 1008.8 |
| 20260504012143 | 49 | 275 | 11.0 | 12.0 | 0.00 | 0.00 | 0.00 | 42 | 1008.7 |
| 20260504011529 | 49 | 310 | 4.0 | 19.0 | 0.00 | 0.00 | 0.00 | 42 | 1008.6 |
| 20260504011027 | 49 | 282 | 7.0 | 20.0 | 0.00 | 0.00 | 0.00 | 41 | 1008.6 |
| 20260504010527 | 49 | 283 | 9.0 | 20.0 | 0.00 | 0.00 | 0.00 | 41 | 1008.5 |
| 20260504010028 | 49 | 264 | 7.0 | 10.0 | 0.00 | 0.00 | 0.00 | 41 | 1008.5 |
| 20260504005643 | 49 | 291 | 4.0 | 14.0 | 0.00 | 0.00 | 0.00 | 41 | 1008.4 |
| 20260504005258 | 49 | 21 | 3.0 | 14.0 | 0.00 | 0.00 | 0.00 | 40 | 1008.4 |
| 20260504004643 | 49 | 222 | 8.0 | 14.0 | 0.00 | 0.00 | 0.00 | 40 | 1008.3 |
| 20260504004142 | 50 | 260 | 10.0 | 15.0 | 0.00 | 0.00 | 0.00 | 39 | 1008.2 |